Weather History for KMEI - November, 2012

Change the Weather History Date:

Wednesday, November 14, 2012

  Actual Average Record
Temperature  
Mean Temperature 47 °F 55 °F  
Max Temperature 60 °F 68 °F 84 °F (1921)
Min Temperature 33 °F 42 °F 21 °F (1963)
Degree Days  
Heating Degree Days 18 10  
Month to date heating degree days 155 122  
Since 1 July heating degree days 276 246  
Cooling Degree Days 0 0  
Month to date cooling degree days 4 13  
Year to date cooling degree days 2177 2026  
Moisture  
Dew Point 35 °F    
Average Humidity 70    
Maximum Humidity 100    
Minimum Humidity 40    
Precipitation  
Precipitation 0.00 in 0.17 in 2.07 in (1929)
Month to date precipitation 1.15 2.11  
Year to date precipitation 53.10 48.26  
Sea Level Pressure  
Sea Level Pressure 30.30 in    
Wind  
Wind Speed 4 mph (NNW)    
Max Wind Speed 13 mph    
Max Gust Speed 15 mph    
Visibility 10 miles    
Events      
T = Trace of Precipitation, MM = Missing Value Source: NWS Daily Summary

Daily Weather History Graph

Daily Weather History Graph

Search for Another Location

Airport or City:

Trip Planner

Search our weather history database for the weather conditions in past years. The results will help you decide how hot, cold, wet, or windy it might be!

Date:

Astronomy

Nov. 14, 2012 Rise Set
Actual Time 6:23 AM CST 4:54 PM CST
Civil Twilight 5:57 AM CST 5:20 PM CST
Nautical Twilight 5:28 AM CST 5:50 PM CST
Astronomical Twilight 4:59 AM CST 6:19 PM CST
Moon 7:09 AM CST (11/14) 5:46 PM CST (11/14)
Length of Visible Light 11h 22m
Length of Day
10h 30m
New Moon, 1% of the Moon is Illuminated
Nov 14
New Moon
Nov 20
First Quarter
Nov 28
Full
Dec 6
Last Quarter
Dec 13
New

Hourly Weather History & Observations

Time (CST) Temp. Windchill Dew Point Humidity Pressure Visibility Wind Dir Wind Speed Gust Speed Precip Events Conditions
12:58 AM 37.9 °F 34.4 °F 32.0 °F 79% 30.31 in 10.0 mi NNW 4.6 mph - N/A   Clear
1:58 AM 36.0 °F 31.1 °F 32.0 °F 86% 30.30 in 10.0 mi North 5.8 mph - N/A   Clear
2:58 AM 35.1 °F 32.2 °F 30.9 °F 85% 30.31 in 10.0 mi NW 3.5 mph - N/A   Clear
3:58 AM 37.0 °F 32.4 °F 32.0 °F 82% 30.31 in 10.0 mi North 5.8 mph - N/A   Clear
4:58 AM 34.0 °F 29.8 °F 30.9 °F 89% 30.32 in 10.0 mi NNW 4.6 mph - N/A   Clear
5:58 AM 33.1 °F 28.7 °F 30.0 °F 89% 30.33 in 10.0 mi NW 4.6 mph - N/A   Clear
6:58 AM 34.0 °F 31.0 °F 32.0 °F 92% 30.34 in 10.0 mi WNW 3.5 mph - N/A   Clear
7:58 AM 37.9 °F 32.7 °F 33.1 °F 83% 30.35 in 10.0 mi North 6.9 mph - N/A   Clear
8:58 AM 46.0 °F 43.9 °F 33.1 °F 61% 30.35 in 10.0 mi North 4.6 mph - N/A   Clear
9:58 AM 50.0 °F - 34.0 °F 54% 30.34 in 10.0 mi NE 5.8 mph - N/A   Clear
10:58 AM 53.1 °F - 35.1 °F 50% 30.31 in 10.0 mi Variable 4.6 mph - N/A   Clear
11:58 AM 55.0 °F - 36.0 °F 49% 30.28 in 10.0 mi NW 5.8 mph - N/A   Clear
12:58 PM 57.9 °F - 35.1 °F 42% 30.26 in 10.0 mi NNE 6.9 mph - N/A   Clear
1:58 PM 57.0 °F - 35.1 °F 44% 30.25 in 10.0 mi NW 8.1 mph - N/A   Mostly Cloudy
2:58 PM 59.0 °F - 36.0 °F 42% 30.25 in 10.0 mi NNW 5.8 mph - N/A   Scattered Clouds
3:58 PM 57.9 °F - 37.0 °F 46% 30.26 in 10.0 mi NNW 8.1 mph - N/A   Clear
4:58 PM 50.0 °F - 39.9 °F 68% 30.26 in 10.0 mi NNW 4.6 mph - N/A   Clear
5:58 PM 45.0 °F 43.5 °F 41.0 °F 86% 30.28 in 10.0 mi NNW 3.5 mph - N/A   Clear
6:58 PM 42.1 °F - 39.9 °F 92% 30.28 in 10.0 mi Calm Calm - N/A   Clear
7:58 PM 39.9 °F - 39.0 °F 97% 30.29 in 10.0 mi Calm Calm - N/A   Clear
8:58 PM 39.0 °F - 37.9 °F 96% 30.29 in 10.0 mi Calm Calm - N/A   Clear
9:58 PM 37.9 °F - 37.0 °F 97% 30.29 in 10.0 mi Calm Calm - N/A   Clear
10:58 PM 35.1 °F - 34.0 °F 96% 30.28 in 10.0 mi Calm Calm - N/A   Clear
11:58 PM 36.0 °F - 35.1 °F 97% 30.27 in 10.0 mi Calm Calm - N/A   Clear